Paducah, KY

5:08 AM CDT on July 28, 2017 (GMT -0500)
Barkley Regional

Weather History for KPAH - February, 2015

Change the Weather History Date:

Saturday, February 7, 2015

  Actual Average Record
Temperature  
Mean Temperature 48 °F 37 °F  
Max Temperature 62 °F 47 °F 72 °F (2017)
Min Temperature 34 °F 28 °F 3 °F (1982)
Degree Days  
Heating Degree Days 17 28  
Month to date heating degree days 207 200  
Since 1 July heating degree days 2840 2773  
Cooling Degree Days 0 0  
Month to date cooling degree days 0 0  
Year to date cooling degree days 0 0  
Moisture  
Dew Point 34 °F    
Average Humidity 58    
Maximum Humidity 70    
Minimum Humidity 46    
Precipitation  
Precipitation 0.00 in 0.13 in 1.08 in (1961)
Month to date precipitation 0.89 0.99  
Year to date precipitation 3.45 4.67  
Snow  
Snow 0.00 in 0.10 in 6.00 in (2011)
Month to date snowfall 0.1 0.9  
Since 1 July snowfall 3.6 6.2  
Snow Depth 0.00 in    
Sea Level Pressure  
Sea Level Pressure 29.98 in    
Wind  
Wind Speed 11 mph (SSW)    
Max Wind Speed 25 mph    
Max Gust Speed 34 mph    
Visibility 10 miles    
Events      
T = Trace of Precipitation, MM = Missing Value Source: NWS Daily Summary

Daily Weather History Graph

Daily Weather History Graph

Search for Another Location

Airport or City:

Trip Planner

Search our weather history database for the weather conditions in past years. The results will help you decide how hot, cold, wet, or windy it might be!

Date:

Astronomy

Feb. 07, 2015 Rise Set
Actual Time 6:52 AM CST 5:26 PM CST
Civil Twilight 6:25 AM CST 5:53 PM CST
Nautical Twilight 5:54 AM CST 6:24 PM CST
Astronomical Twilight 5:24 AM CST 6:54 PM CST
Moon 9:03 PM CST (2/7) 8:34 AM CST (2/7)
Length of Visible Light 11h 27m
Length of Day
10h 33m
Waning Gibbous, 88% of the Moon is Illuminated
Feb 7
Waning Gibbous
Feb 11
Last Quarter
Feb 18
New
Feb 25
First Quarter
Mar 5
Full

Hourly Weather History & Observations

Time (CST) Temp. Windchill Dew Point Humidity Pressure Visibility Wind Dir Wind Speed Gust Speed Precip Events Conditions
12:53 AM 37.9 °F 33.5 °F 28.0 °F 68% 30.11 in 10.0 mi Variable 5.8 mph - N/A   Clear
1:53 AM 37.9 °F 34.4 °F 27.0 °F 65% 30.13 in 10.0 mi SSW 4.6 mph - N/A   Clear
2:53 AM 37.0 °F 33.3 °F 27.0 °F 67% 30.11 in 10.0 mi South 4.6 mph - N/A   Clear
3:53 AM 37.0 °F 32.4 °F 26.1 °F 65% 30.09 in 10.0 mi Variable 5.8 mph - N/A   Clear
4:53 AM 37.0 °F 31.6 °F 25.0 °F 62% 30.09 in 10.0 mi SSW 6.9 mph - N/A   Clear
5:53 AM 37.0 °F 31.6 °F 24.1 °F 59% 30.07 in 10.0 mi SSW 6.9 mph - N/A   Clear
6:53 AM 37.0 °F 31.6 °F 24.1 °F 59% 30.06 in 10.0 mi Variable 6.9 mph - N/A   Clear
7:53 AM 41.0 °F 35.8 °F 26.6 °F 57% 30.07 in 10.0 mi SSW 8.1 mph - N/A   Clear
8:53 AM 46.0 °F 39.0 °F 30.9 °F 56% 30.07 in 10.0 mi SSW 17.3 mph 26.5 mph N/A   Clear
9:53 AM 48.9 °F - 35.1 °F 59% 30.06 in 10.0 mi SSW 16.1 mph 25.3 mph N/A   Clear
10:53 AM 53.1 °F - 37.0 °F 55% 30.04 in 10.0 mi SW 15.0 mph 23.0 mph N/A   Clear
11:53 AM 57.0 °F - 39.9 °F 53% 30.01 in 10.0 mi SW 18.4 mph 33.4 mph N/A   Clear
12:53 PM 57.9 °F - 39.9 °F 51% 29.96 in 10.0 mi South 12.7 mph 23.0 mph N/A   Clear
1:53 PM 59.0 °F - 39.9 °F 49% 29.93 in 10.0 mi South 15.0 mph 24.2 mph N/A   Clear
2:53 PM 61.0 °F - 39.9 °F 46% 29.91 in 10.0 mi South 15.0 mph 24.2 mph N/A   Clear
3:53 PM 62.1 °F - 41.0 °F 46% 29.88 in 10.0 mi SSW 10.4 mph 25.3 mph N/A   Clear
4:53 PM 61.0 °F - 39.9 °F 46% 29.88 in 10.0 mi SSW 12.7 mph 21.9 mph N/A   Clear
5:53 PM 57.9 °F - 39.0 °F 49% 29.89 in 10.0 mi SSW 9.2 mph 18.4 mph N/A   Clear
6:53 PM 55.9 °F - 39.0 °F 53% 29.89 in 10.0 mi SW 12.7 mph 19.6 mph N/A   Clear
7:53 PM 57.0 °F - 37.9 °F 49% 29.89 in 10.0 mi SSW 13.8 mph 24.2 mph N/A   Clear
8:53 PM 55.9 °F - 37.9 °F 51% 29.89 in 10.0 mi SSW 18.4 mph 24.2 mph N/A   Clear
9:53 PM 55.0 °F - 37.9 °F 53% 29.89 in 10.0 mi SW 13.8 mph 23.0 mph N/A   Clear
10:53 PM 54.0 °F - 37.9 °F 55% 29.87 in 10.0 mi SSW 10.4 mph 24.2 mph N/A   Clear
11:53 PM 52.0 °F - 37.9 °F 59% 29.87 in 10.0 mi SSW 10.4 mph 23.0 mph N/A   Clear